Retour au catalogue

COSMOS 1375 DEB

ActifLEO
NORAD 19473·DEBRIS·🇷🇺 Russia

Lancé Jun 6, 1982 depuis Plesetsk Cosmodrome

Loading…

Prochains Passages (prochaines 24 heures)

TLE

FraisSource: Space-Track

Époque: Sep 14, 2026, 10:37 UTC

1 19473U 82055BM  26257.44271926  .00000670  00000-0  56057-3 0  9990
2 19473  65.8231  62.5120 0028998 196.7475 190.7397 13.94804215978560

Suivez COSMOS 1375 DEB en temps réel avec AllMySat

Download on the App Store